Home > Weather > Uelzen > Past weeks

Flag for Germany Weather for the Past 2 Weeks in Uelzen, Lower Saxony, Germany

Now
30 °F

Ice fog.


Feels Like: 23 °F
Forecast: 30 / 40 °F
Wind: 8 mph from Southwest

Location: Fassberg

Current Time: Feb 12, 2016 at 7:44:57 AM

Latest Report: Feb 12, 2016 at 6:20 AM


Visibility: 0 mi

Pressure: 29.59 "Hg

Humidity: 93%

Dew point: 28 °F

Location of UelzenLocation

Historic Weather in Uelzen — Graph

°F

Uelzen Temperature Yesterday

Maximum temperature yesterday: 43 °F (at 1:20 PM)
Minimum temperature yesterday: 32 °F (at 11:20 PM)
Average temperature yesterday: 39 °F

High & Low Weather Summary for the Past Weeks

 TemperatureHumidityPressure
High55 °F (Feb 7, 1:20 PM)100% (Feb 1, 7:20 AM)30.21 "Hg (Feb 1, 7:20 AM)
Low30 °F (Feb 12, 3:20 AM)55% (Feb 7, 1:20 PM)28.77 "Hg (Feb 9, 9:20 PM)
Average42 °F82%29.70 "Hg
* Reported Jan 28 6:20 AM — Feb 12 6:20 AM, Uelzen, Weather by CustomWeather, © 2016

Note: Actual official high and low records may vary slightly from our data, if they occured in-between our weather recording intervals... More about our weather records

Advertising

Uelzen Weather History for the Previous 24 Hours

 ConditionsComfort  
Time TempWeatherWind HumidityBarometerVisibility
6:20 AM
Fri, Feb 12
30 °FIce fog.8 mph93%29.59 "Hg1 mi
5:20 AM30 °FIce fog.6 mph100%29.59 "Hg1 mi
4:20 AM30 °FIce fog.6 mph100%29.59 "Hg2 mi
3:20 AM30 °FIce fog.7 mph100%29.59 "Hg3 mi
2:20 AM32 °FChilly.5 mph93%29.59 "Hg4 mi
1:20 AM32 °FChilly.6 mph93%29.59 "Hg4 mi
12:20 AM32 °FChilly.6 mph93%29.59 "Hg5 mi
11:20 PM
Thu, Feb 11
32 °FPassing clouds.6 mph93%29.59 "HgN/A
10:20 PM34 °FPassing clouds.7 mph93%29.59 "HgN/A
9:20 PM34 °FPassing clouds.7 mph93%29.59 "HgN/A
8:20 PM36 °FPassing clouds.9 mph87%29.59 "HgN/A
7:20 PM36 °FPassing clouds.8 mph87%29.59 "HgN/A
6:20 PM39 °FPassing clouds.12 mph81%29.56 "HgN/A
5:20 PM41 °FScattered clouds.10 mph70%29.56 "HgN/A
4:20 PM43 °FScattered clouds.9 mph71%29.56 "HgN/A
3:20 PM43 °FScattered clouds.13 mph66%29.56 "HgN/A
2:20 PM43 °FScattered clouds.16 mph66%29.53 "HgN/A
1:20 PM43 °FScattered clouds.17 mph71%29.53 "HgN/A
12:20 PM41 °FScattered clouds.17 mph76%29.53 "HgN/A
11:20 AM41 °FScattered clouds.15 mph76%29.53 "HgN/A
10:20 AM39 °FScattered clouds.13 mph81%29.53 "HgN/A
9:20 AM37 °FScattered clouds.13 mph87%29.50 "HgN/A
8:20 AM36 °FScattered clouds.14 mph87%29.50 "HgN/A
7:20 AM37 °FPassing clouds.14 mph87%29.50 "HgN/A
Weather by CustomWeather, © 2016

See weather overviewHow to use our weather pages